DW8923 Weather Reports


time (UTC)temp
F
wind
direction
speed
knots
gust
knots
rain 1hr
in
rain 24hr
in
rain mn
in
humidity
%
barometer
mb
20260904034516 81 126 3.5 7.8 0.00 0.00 0.00 77 1010.8
20260904033115 81 144 3.5 9.6 0.00 0.00 0.00 76 1010.8
20260904031515 81 138 4.3 11.3 0.00 0.00 0.00 75 1010.7
20260904030020 82 134 1.7 7.8 0.00 0.00 0.00 74 1010.6
20260904024516 82 123 4.3 10.4 0.00 0.00 0.00 73 1010.4
20260904023013 82 175 5.2 12.2 0.00 0.00 0.00 72 1010.2
20260904021521 82 136 2.6 7.0 0.00 0.00 0.00 70 1010.2
20260904020012 83 132 2.6 7.8 0.00 0.00 0.00 70 1009.9
20260904014511 83 122 3.5 7.8 0.00 0.00 0.00 69 1009.6
20260904013011 83 144 4.3 9.6 0.00 0.00 0.00 69 1009.6
20260904011510 84 133 6.1 11.3 0.00 0.00 0.00 68 1009.6
20260904010010 84 141 4.3 11.3 0.00 0.00 0.00 68 1009.5
20260904004509 85 131 5.2 11.3 0.00 0.00 0.00 67 1009.3
20260904003008 86 102 6.1 10.4 0.00 0.00 0.00 66 1009.3
20260904001508 86 119 6.1 11.3 0.00 0.00 0.00 66 1009.2
20260904000007 87 115 6.1 15.6 0.00 0.00 0.00 66 1009.1
20260903234517 88 140 5.2 13.0 0.00 0.00 0.00 66 1009.0
20260903233005 89 93 7.0 13.9 0.00 0.00 0.00 64 1008.8
20260903231504 90 145 8.7 16.5 0.00 0.00 0.00 64 1008.8
20260903230008 91 126 7.0 13.9 0.00 0.00 0.00 64 1008.5
20260903224508 92 102 6.1 13.9 0.00 0.00 0.00 61 1008.4
20260903223002 93 138 5.2 15.6 0.00 0.00 0.00 58 1008.3
20260903221502 94 71 6.1 12.2 0.00 0.00 0.00 57 1008.3
20260903220120 95 92 7.0 13.0 0.00 0.00 0.00 55 1008.2
20260903214559 93 111 3.5 10.4 0.00 0.00 0.00 55 1008.3
20260903213157 94 132 5.2 12.2 0.00 0.00 0.00 55 1008.5
20260903211602 95 136 4.3 11.3 0.00 0.00 0.00 55 1008.5
20260903210105 94 98 5.2 12.2 0.00 0.00 0.00 55 1008.6
20260903204553 95 69 4.3 9.6 0.00 0.00 0.00 54 1008.7
20260903203050 95 136 4.3 9.6 0.00 0.00 0.00 54 1009.1
20260903201547 96 71 2.6 7.0 0.00 0.00 0.00 51 1009.4
20260903200044 95 153 2.6 6.1 0.00 0.00 0.00 55 1009.5
20260903194540 93 126 2.6 7.8 0.00 0.00 0.00 57 1009.7
20260903193036 92 47 2.6 6.1 0.00 0.00 0.00 57 1009.9
20260903191546 92 117 1.7 6.1 0.00 0.00 0.00 58 1010.1
20260903190029 91 76 1.7 7.0 0.00 0.00 0.00 59 1010.4
20260903184540 91 109 2.6 7.8 0.00 0.00 0.00 59 1010.6
20260903183028 91 109 1.7 4.3 0.00 0.00 0.00 59 1010.9
20260903181526 91 108 1.7 7.0 0.00 0.00 0.00 60 1011.0
20260903180031 90 49 2.6 6.1 0.00 0.00 0.00 60 1011.2
20260903174519 89 127 0.9 5.2 0.00 0.00 0.00 64 1011.5
20260903173020 88 107 1.7 5.2 0.00 0.00 0.00 64 1011.7
20260903171515 88 128 1.7 5.2 0.00 0.00 0.00 64 1011.8
20260903170013 88 119 1.7 6.1 0.00 0.00 0.00 65 1011.9
20260903164510 88 150 2.6 6.1 0.00 0.00 0.00 66 1011.6
20260903163008 87 193 2.6 9.6 0.00 0.00 0.00 66 1011.5
20260903161505 87 194 4.3 9.6 0.00 0.00 0.00 67 1011.5
20260903160002 86 159 2.6 9.6 0.00 0.00 0.00 69 1011.5
20260903154559 85 182 4.3 8.7 0.00 0.00 0.00 71 1011.3
20260903153056 84 140 2.6 7.0 0.00 0.00 0.00 74 1011.2
20260903151554 84 185 3.5 9.6 0.00 0.00 0.00 75 1011.2
20260903150054 83 207 2.6 8.7 0.00 0.00 0.00 77 1011.3
20260903144550 83 115 1.7 7.0 0.00 0.00 0.00 79 1011.3
20260903143105 82 182 3.5 7.8 0.00 0.00 0.00 80 1011.4
20260903141544 81 190 3.5 7.0 0.00 0.00 0.00 82 1011.2
20260903140044 81 163 2.6 5.2 0.00 0.00 0.00 84 1011.3
20260903134542 80 177 1.7 7.0 0.00 0.00 0.00 85 1011.3
20260903133041 80 175 2.6 8.7 0.00 0.00 0.00 86 1011.3
20260903131548 79 127 2.6 8.7 0.00 0.00 0.00 86 1011.3
20260903130038 79 158 2.6 7.0 0.00 0.00 0.00 87 1011.3
20260903124540 79 163 1.7 8.7 0.00 0.00 0.00 88 1011.1
20260903123041 79 196 2.6 7.0 0.00 0.00 0.00 88 1011.1
20260903121536 79 167 1.7 9.6 0.00 0.00 0.00 88 1011.0
20260903120038 79 171 1.7 9.6 0.00 0.00 0.00 87 1011.0
20260903114536 79 153 2.6 7.0 0.00 0.00 0.00 88 1010.8
20260903113041 79 188 3.5 7.0 0.00 0.00 0.00 88 1010.8
20260903111532 79 148 3.5 7.0 0.00 0.00 0.00 88 1010.9
20260903110032 79 98 2.6 6.1 0.00 0.00 0.00 88 1010.8
20260903104528 79 165 2.6 7.0 0.00 0.00 0.00 88 1010.6
20260903103029 79 175 1.7 5.2 0.00 0.00 0.00 87 1010.5
20260903101527 79 177 2.6 6.1 0.00 0.00 0.00 87 1010.5
20260903100027 79 175 1.7 7.0 0.00 0.00 0.00 87 1010.5
20260903094524 79 198 2.6 6.1 0.00 0.00 0.00 86 1010.5
20260903093029 79 155 1.7 7.0 0.00 0.00 0.00 86 1010.6
20260903091521 79 146 2.6 7.0 0.00 0.00 0.00 85 1010.9
20260903090023 79 186 2.6 10.4 0.00 0.00 0.00 85 1010.8
20260903084523 79 169 2.6 7.8 0.00 0.00 0.00 84 1010.8
20260903083017 80 150 2.6 7.8 0.00 0.00 0.00 84 1010.8
20260903081516 80 160 0.9 7.0 0.00 0.00 0.00 83 1010.9
20260903080015 80 124 1.7 7.8 0.00 0.00 0.00 82 1010.8
20260903074513 80 156 1.7 7.8 0.00 0.00 0.00 81 1010.9
20260903073012 79 176 3.5 7.0 0.00 0.00 0.00 81 1010.9
20260903071511 79 165 1.7 6.1 0.00 0.00 0.00 81 1011.0
20260903070010 79 139 1.7 4.3 0.00 0.00 0.00 81 1011.1
20260903064508 80 150 2.6 6.1 0.00 0.00 0.00 81 1011.1
20260903063006 80 124 2.6 6.1 0.00 0.00 0.00 81 1011.3
20260903061506 80 83 1.7 7.0 0.00 0.00 0.00 80 1011.3
20260903060004 80 102 2.6 6.1 0.00 0.00 0.00 80 1011.4
20260903054502 80 163 1.7 9.6 0.00 0.00 0.00 79 1011.5
20260903053100 81 129 1.7 7.8 0.00 0.00 0.00 78 1011.4
20260903051603 81 128 3.5 7.0 0.00 0.00 0.00 76 1011.3
20260903050056 81 146 2.6 7.8 0.00 0.00 0.00 74 1011.3
20260903044555 81 93 1.7 7.0 0.00 0.00 0.00 73 1011.2
20260903043053 82 88 1.7 5.2 0.00 0.00 0.00 72 1011.2
20260903041557 82 150 0.9 7.0 0.00 0.00 0.00 71 1011.2
20260903040053 82 83 5.2 10.4 0.00 0.00 0.00 71 1011.3